This is the latest recevied weather packets stored in our database for station/object KB9HUO. If no packets are shown the sender has not sent any weather packets the latest 10 day(s).
| Time | Temp. | Humidity | Pressure | Rain* | Wind** | Luminosity | Snow |
|---|---|---|---|---|---|---|---|
| 1777986560 | 15° C | 89% | 1009.5 hPa | 0 mm | - | 68 W/m² | - |
| 1777986258 | 15° C | 90% | 1009.6 hPa | 0 mm | - | 52 W/m² | - |
| 1777985955 | 15° C | 90% | 1009.3 hPa | 0 mm | - | 50 W/m² | - |
| 1777985653 | 15° C | 91% | 1009.3 hPa | 0 mm | - | 53 W/m² | - |
| 1777985349 | 14.44° C | 91% | 1009.1 hPa | 0 mm | - | 51 W/m² | - |
| 1777985046 | 14.44° C | 92% | 1009.5 hPa | 0 mm | - | 53 W/m² | - |
| 1777984742 | 14.44° C | 92% | 1009.1 hPa | 0 mm | - | 59 W/m² | - |
| 1777984439 | 14.44° C | 92% | 1009.2 hPa | 0 mm | - | 54 W/m² | - |
| 1777984135 | 14.44° C | 92% | 1009.1 hPa | 0 mm | - | 47 W/m² | - |
| 1777983832 | 14.44° C | 93% | 1009.2 hPa | 0 mm | - | 34 W/m² | - |
| 1777983529 | 14.44° C | 93% | 1009.3 hPa | 0 mm | - | 31 W/m² | - |
| 1777983226 | 14.44° C | 92% | 1009.5 hPa | 0 mm | - | 26 W/m² | - |
| 1777982922 | 14.44° C | 92% | 1009.3 hPa | 0 mm | - | 29 W/m² | - |
| 1777982618 | 13.89° C | 93% | 1009.1 hPa | 0 mm | - | 36 W/m² | - |
| 1777982317 | 13.89° C | 93% | 1009.1 hPa | 0 mm | - | 33 W/m² | - |
| 1777982014 | 13.89° C | 94% | 1009 hPa | 0 mm | - | 21 W/m² | - |
| 1777981712 | 13.89° C | 95% | 1009.5 hPa | 0 mm | - | 18 W/m² | - |
| 1777981408 | 13.89° C | 95% | 1009.2 hPa | 0 mm | - | 13 W/m² | - |
| 1777981105 | 13.89° C | 96% | 1009 hPa | 0 mm | - | 17 W/m² | - |
| 1777980801 | 13.89° C | 96% | 1009 hPa | 0 mm | - | 11 W/m² | - |
| 1777980497 | 13.89° C | 96% | 1009.2 hPa | 0 mm | - | 9 W/m² | - |
| 1777980195 | 13.33° C | 96% | 1009.2 hPa | 0 mm | - | 11 W/m² | - |
| 1777979890 | 13.33° C | 96% | 1009.5 hPa | 1.27 mm | - | 12 W/m² | - |
| 1777979586 | 13.33° C | 96% | 1009.5 hPa | 1.27 mm | - | 7 W/m² | - |
| 1777979282 | 13.33° C | 96% | 1009.7 hPa | 1.78 mm | - | 3 W/m² | - |
* Rain latest hour (hover to see other rain measurements)
** Current wind speed in m/s (hover to see current wind gust speed)